Tracking 19832 objects as of 25-Aug-2019
HD Live streaming from Space Station
objects crossing your sky now

COSMOS 2340

Track COSMOS 2340 now!
COSMOS 2340 is classified as:


NORAD ID: 24761
Int'l Code: 1997-015A
Perigee: 3,258.1 km
Apogee: 37,151.5 km
Inclination: 67.1 °
Period: 718.6 minutes
Semi major axis: 26575 km
RCS: 6.3095 m2 (large)
Launch date: April 9, 1997
Source: Commonwealth of Independent States (former USSR) (CIS)
Launch site: PLESETSK MISSILE AND SPACE COMPLEX (PKMTR)
aabbcc
Your satellite tracking list
Your tracking list is empty




NASA's NSSDC Master Catalog

Two Line Element Set (TLE):
1 24761U 97015A   19236.47690375 -.00000855 +00000-0 +00000-0 0  9993
2 24761 067.0932 003.8294 6376738 184.4429 164.8108 02.00388633163929
Source of the keplerian elements: AFSPC